Find Starlink 31961

NORAD ID: 59894 Int'l Des: 2024-100 Owner: SPXS Country: US Constellation: starlink operational
LEOCIRCULAR

Current View

Loading 3D Globe...

About Starlink 31961

Starlink 31961 (NORAD 59894) is a starlink constellation satellite (v2 mini) launched May 28, 2024 by SPXS of US. It operates in LEO, CIRCULAR orbit with a mass of 730.00 kg.

Upcoming Passes

Passes for default location (London). Set your location on the main map for personalized predictions.

Altitude History

Loading altitude history...

Two-Line Element Set

1 59894U 24100K 26237.29454252 -.00002521 00000-0 -82142-4 0 9998
2 59894 43.0040 246.2153 0001555 280.9577 79.1100 15.27565269127023
Epoch: Aug 25, 2026 • Age: 7 hours

Current Status

Altitude 486.8 km
Apogee / Perigee N/A
Velocity 7.63 km/s
Sub-Earth Point 40.65°N, 177.27°E
Launch Date May 28, 2024
Age 2.2 years
Type internet

Technical Details

Classification Payload
Mass 730.00 kg
Dry Mass 700.00 kg
Total Mass 730.00 kg
Length 0.30 m
Diameter 4.10 m
Span 29.00 m
Shape Box + pan
Manufacturer SPXS
Bus Type Starlink V2M
Phase Status In Orbit
Owner/State SPXS/US

Most Searched